ARIANE 42P DEB, 44509

Orbit data source: Space-Track

ARIANE 42P DEB, 44509 is space debris in LEO originally from a launch on Mon, 10 Aug 1992 UTC launched from the French Guiana (FRGUI). Debris objects in space refer to the collection of defunct objects orbiting the Earth. Examples of debris include non-operational satellites, rocket bodies, and fragments generated from explosions, collisions, or faulty payload assembly.

Loading next visibility...
Identifier
44509, 1992-052G
Orbit
LEO
Last TLE update
15 hours ago
Origin
Manufacturer
ArianeGroup
Mission
Spacecraft
Bus & Motor
Unknown
Mass
Unknown
Launch date (UTC)
1992-08-10 (33 years ago)
Launch vehicle
Unknown
Launch site
French Guiana (FRGUI)
Object type
Payload
Rocket body
Debris
Shape & HBR
Unknown
Radar Cross Section
Small (<0.1 m²)

Expand to show TLE details & history

TLE from 15 hours ago
0 ARIANE 42P DEB
1 44509U 92052G   25132.87974794  .00000236  00000-0  12261-2 0  9993
2 44509  66.0851  42.0538 0053413 100.9746 259.7286 12.84250971268526
Epoch: 2025-05-12T21:06Z
Definitive object data (Epoch: 2025-05-12T21:06:50.222Z)
Latitude
-0.00003°
Longitude
-145.54197°
Altitude
1,333.891 km
Speed
7.188 km/s
True Right ascension
02h 48m 12s
True Declination
0° 00' 00"
Sunlit
Object was in daylight at TLE epoch
Visualization TLE readout
Latitude
-64.09957°
Longitude
147.86651°
Altitude
1,389.186 km
Speed
7.146 km/s
Apparent Right ascension
05h 14m 18s
Apparent Declination
-75° 34' 36"
Sunlit
Object is in daylight
Visualization observer readout
Local Sidereal Time
20:04:26
Azimuth
164.922° S
Elevation
-49.66°
Doppler factor
1
Orbital elements
Apogee altitude
1,364.115 km
Perigee altitude
1,281.847 km
Semi-major axis
7,701.118 km
Eccentricity
0.0053413
Inclination
66.0851°
RAAN
42.0538°
Arg. of periapsis
100.9746°
True anomaly
259.12707°
Mean anomaly
259.7286°
Eccentric anomaly
259.42776°
Mean motion
3.21153 °/min
BSTAR
0.0012261
Orbital period
112.1 mins
Loading maneuver chart data...
Loading SW <> Apogee altitude chart data...
Loading historical data...
Loading historical data...
Loading historical data...
Loading historical data...
Loading historical data...
Loading historical data...
Loading historical data...

ARIANE 42P DEB Visibility forecast

Observer location: undefined°, undefined°

Span
Click to sort rows by Start time (UTC) header in descending order
Start Az.
Max El. time (UTC)
Max El. Az.
Max El.
End time (UTC)
End Az.
10 mins2025-05-13 17:46:59.217Z141.698° SSE2025-05-13 17:51:59.217Z101.318° ESE18.134°2025-05-13 17:56:59.217Z61.48° ENE
14 mins2025-05-13 19:39:59.217Z211.581° SW2025-05-13 19:46:59.217Z357.238° N44.504°2025-05-13 19:53:59.217Z29.035° NE
10 mins2025-05-13 21:38:59.217Z283.149° WNW2025-05-13 21:42:59.217Z319.049° NNW20.836°2025-05-13 21:48:59.217Z10.158° NNE
5 mins2025-05-14 01:40:59.217Z9.764° NNE2025-05-14 01:42:59.217Z25.82° NE12.832°2025-05-14 01:45:59.217Z49.029° ENE
13 mins2025-05-14 03:34:59.217Z345.589° N2025-05-14 03:40:59.217Z52.986° ENE34.402°2025-05-14 03:47:59.217Z119.552° SE
12 mins2025-05-14 05:30:59.217Z311.206° NW2025-05-14 05:35:59.217Z257.805° W34.524°2025-05-14 05:42:59.217Z183.731° SSW
|